| time (UTC) | temp F | wind direction | speed knots | gust knots | rain 1hr in | rain 24hr in | rain mn in | humidity % | barometer mb |
| 20260510111704 | 52 | 131 | 0.0 | 1.7 | 0.00 | 0.34 | 0.00 | 98 | 1012.5 |
| 20260510111204 | 52 | 131 | 0.0 | 1.7 | 0.00 | 0.34 | 0.00 | 98 | 1012.3 |
| 20260510110704 | 52 | 131 | 0.0 | 0.0 | 0.00 | 0.34 | 0.00 | 98 | 1012.0 |
| 20260510110204 | 52 | 131 | 0.0 | 1.7 | 0.00 | 0.34 | 0.00 | 98 | 1011.9 |
| 20260510105204 | 51 | 131 | 0.0 | 0.0 | 0.00 | 0.34 | 0.00 | 98 | 1012.1 |
| 20260510104704 | 51 | 131 | 0.0 | 0.9 | 0.00 | 0.34 | 0.00 | 98 | 1012.0 |
| 20260510104203 | 51 | 131 | 0.0 | 0.0 | 0.00 | 0.34 | 0.00 | 98 | 1012.1 |
| 20260510103704 | 51 | 131 | 0.0 | 1.7 | 0.00 | 0.34 | 0.00 | 98 | 1011.9 |
| 20260510102704 | 51 | 127 | 0.9 | 2.6 | 0.00 | 0.34 | 0.00 | 98 | 1011.5 |
| 20260510102205 | 51 | 127 | 0.0 | 0.9 | 0.00 | 0.34 | 0.00 | 98 | 1011.8 |
| 20260510101204 | 50 | 127 | 0.0 | 1.7 | 0.00 | 0.34 | 0.00 | 98 | 1011.7 |
| 20260510100704 | 50 | 127 | 0.0 | 0.9 | 0.00 | 0.34 | 0.00 | 98 | 1011.8 |
| 20260510095704 | 50 | 127 | 0.0 | 0.0 | 0.00 | 0.34 | 0.00 | 98 | 1011.6 |
| 20260510095204 | 50 | 127 | 0.0 | 0.0 | 0.00 | 0.34 | 0.00 | 98 | 1011.5 |
| 20260510094205 | 50 | 127 | 0.0 | 0.0 | 0.00 | 0.34 | 0.00 | 97 | 1011.6 |
| 20260510093704 | 50 | 127 | 0.0 | 0.0 | 0.00 | 0.34 | 0.00 | 97 | 1011.7 |
| 20260510092204 | 50 | 127 | 0.0 | 0.0 | 0.00 | 0.34 | 0.00 | 97 | 1011.6 |
| 20260510091704 | 50 | 127 | 0.0 | 0.0 | 0.00 | 0.34 | 0.00 | 97 | 1011.4 |
| 20260510085704 | 50 | 127 | 0.0 | 0.0 | 0.00 | 0.34 | 0.00 | 97 | 1011.5 |
| 20260510084204 | 49 | 127 | 0.0 | 0.0 | 0.00 | 0.34 | 0.00 | 97 | 1011.7 |
| 20260510083704 | 49 | 127 | 0.0 | 0.0 | 0.00 | 0.34 | 0.00 | 98 | 1011.5 |
| 20260510082704 | 49 | 127 | 0.0 | 0.0 | 0.00 | 0.34 | 0.00 | 97 | 1011.5 |
| 20260510082205 | 49 | 127 | 0.0 | 0.0 | 0.00 | 0.34 | 0.00 | 97 | 1011.6 |
| 20260510081704 | 49 | 127 | 0.0 | 0.0 | 0.00 | 0.34 | 0.00 | 97 | 1011.5 |
| 20260510080704 | 49 | 127 | 0.0 | 0.0 | 0.00 | 0.34 | 0.00 | 97 | 1011.4 |
| 20260510080204 | 49 | 127 | 0.0 | 0.0 | 0.00 | 0.34 | 0.00 | 97 | 1011.2 |
| 20260510075204 | 49 | 127 | 0.0 | 0.0 | 0.00 | 0.34 | 0.00 | 97 | 1011.4 |
| 20260510074204 | 49 | 127 | 0.0 | 0.0 | 0.00 | 0.34 | 0.00 | 97 | 1011.3 |
| 20260510073204 | 49 | 127 | 0.0 | 0.0 | 0.00 | 0.34 | 0.00 | 97 | 1011.1 |
| 20260510065705 | 49 | 127 | 0.0 | 0.0 | 0.00 | 0.34 | 0.00 | 97 | 1011.0 |
| 20260510064703 | 49 | 127 | 0.0 | 0.0 | 0.00 | 0.34 | 0.00 | 97 | 1011.0 |
| 20260510064204 | 49 | 127 | 0.0 | 0.0 | 0.00 | 0.34 | 0.00 | 97 | 1010.9 |
| 20260510063704 | 49 | 127 | 0.0 | 0.0 | 0.00 | 0.34 | 0.00 | 97 | 1010.9 |
| 20260510062704 | 49 | 127 | 0.0 | 0.0 | 0.00 | 0.34 | 0.00 | 97 | 1011.0 |
| 20260510060704 | 49 | 127 | 0.0 | 0.0 | 0.00 | 0.34 | 0.00 | 97 | 1011.1 |
| 20260510060204 | 49 | 127 | 0.0 | 0.0 | 0.00 | 0.34 | 0.00 | 97 | 1011.2 |
| 20260510055704 | 49 | 127 | 0.0 | 0.0 | 0.00 | 0.34 | 0.00 | 97 | 1011.2 |
| 20260510054703 | 49 | 127 | 0.0 | 0.0 | 0.00 | 0.34 | 0.00 | 97 | 1011.2 |
| 20260510053204 | 49 | 127 | 0.0 | 0.0 | 0.00 | 0.34 | 0.00 | 97 | 1011.6 |
| 20260510051704 | 49 | 127 | 0.0 | 0.0 | 0.00 | 0.34 | 0.00 | 97 | 1011.7 |
| 20260510051204 | 49 | 127 | 0.0 | 0.0 | 0.00 | 0.34 | 0.00 | 97 | 1011.5 |
| 20260510045703 | 49 | 127 | 0.0 | 0.0 | 0.00 | 0.34 | 0.00 | 97 | 1011.7 |
| 20260510045204 | 49 | 127 | 0.0 | 0.0 | 0.00 | 0.34 | 0.00 | 97 | 1011.7 |
| 20260510042205 | 49 | 127 | 0.0 | 0.0 | 0.00 | 0.34 | 0.00 | 97 | 1011.7 |
| 20260510041704 | 49 | 127 | 0.0 | 0.0 | 0.00 | 0.34 | 0.00 | 97 | 1011.7 |
| 20260510035204 | 49 | 127 | 0.0 | 0.0 | 0.01 | 0.34 | 0.34 | 97 | 1012.0 |
| 20260510034704 | 49 | 127 | 0.0 | 0.0 | 0.01 | 0.34 | 0.34 | 97 | 1012.0 |
| 20260510034203 | 49 | 127 | 0.0 | 0.0 | 0.01 | 0.34 | 0.34 | 97 | 1012.0 |
| 20260510033704 | 49 | 127 | 0.0 | 0.9 | 0.01 | 0.34 | 0.34 | 97 | 1011.9 |
| 20260510032204 | 49 | 127 | 0.0 | 0.0 | 0.01 | 0.34 | 0.34 | 97 | 1011.9 |
| 20260510031704 | 49 | 127 | 0.0 | 0.0 | 0.01 | 0.34 | 0.34 | 97 | 1012.0 |
| 20260510031203 | 49 | 127 | 0.0 | 0.0 | 0.01 | 0.34 | 0.34 | 97 | 1012.1 |
| 20260510030704 | 49 | 127 | 0.0 | 0.0 | 0.00 | 0.33 | 0.33 | 96 | 1012.3 |
| 20260510030203 | 49 | 127 | 0.0 | 0.0 | 0.00 | 0.33 | 0.33 | 96 | 1012.3 |
| 20260510025704 | 49 | 127 | 0.0 | 0.0 | 0.00 | 0.33 | 0.33 | 96 | 1012.4 |
| 20260510025205 | 49 | 127 | 0.0 | 0.0 | 0.00 | 0.33 | 0.33 | 96 | 1012.4 |
| 20260510024703 | 49 | 127 | 0.0 | 0.0 | 0.00 | 0.33 | 0.33 | 96 | 1012.5 |
| 20260510024204 | 49 | 127 | 0.0 | 0.0 | 0.00 | 0.33 | 0.33 | 96 | 1012.4 |
| 20260510023703 | 48 | 127 | 0.0 | 0.0 | 0.00 | 0.33 | 0.33 | 96 | 1012.4 |
| 20260510023203 | 48 | 127 | 0.0 | 0.0 | 0.00 | 0.33 | 0.33 | 96 | 1012.4 |
| 20260510021204 | 48 | 127 | 0.0 | 0.0 | 0.00 | 0.33 | 0.33 | 96 | 1012.5 |
| 20260510020703 | 48 | 127 | 0.0 | 0.0 | 0.00 | 0.33 | 0.33 | 96 | 1012.6 |
| 20260510020204 | 48 | 127 | 0.0 | 0.0 | 0.00 | 0.33 | 0.33 | 96 | 1012.6 |
| 20260510015704 | 48 | 127 | 0.0 | 0.0 | 0.00 | 0.33 | 0.33 | 96 | 1012.7 |
| 20260510015203 | 48 | 127 | 0.0 | 0.0 | 0.00 | 0.33 | 0.33 | 96 | 1012.7 |
| 20260510013204 | 48 | 127 | 0.0 | 0.0 | 0.00 | 0.33 | 0.33 | 96 | 1012.5 |
| 20260510012704 | 48 | 127 | 0.0 | 0.0 | 0.00 | 0.33 | 0.33 | 96 | 1012.5 |
| 20260510011704 | 48 | 127 | 0.0 | 0.0 | 0.00 | 0.33 | 0.33 | 96 | 1012.5 |
| 20260510010703 | 48 | 127 | 0.0 | 0.0 | 0.00 | 0.33 | 0.33 | 96 | 1012.7 |
| 20260510005205 | 48 | 127 | 0.0 | 0.0 | 0.00 | 0.33 | 0.33 | 96 | 1012.3 |
| 20260510004705 | 48 | 127 | 0.0 | 0.0 | 0.00 | 0.33 | 0.33 | 96 | 1012.3 |
| 20260510004204 | 48 | 127 | 0.0 | 0.0 | 0.01 | 0.33 | 0.33 | 96 | 1012.2 |
| 20260510003705 | 48 | 127 | 0.0 | 0.0 | 0.01 | 0.33 | 0.33 | 96 | 1012.3 |
| 20260510002704 | 48 | 127 | 0.0 | 0.0 | 0.01 | 0.33 | 0.33 | 96 | 1012.4 |
| 20260510002205 | 48 | 127 | 0.0 | 0.0 | 0.01 | 0.33 | 0.33 | 96 | 1012.4 |
| 20260510001705 | 48 | 127 | 0.0 | 0.0 | 0.02 | 0.33 | 0.33 | 95 | 1012.4 |
| 20260510000705 | 48 | 127 | 0.0 | 0.9 | 0.02 | 0.33 | 0.33 | 95 | 1012.5 |
| 20260509235704 | 48 | 127 | 0.0 | 0.9 | 0.03 | 0.33 | 0.33 | 95 | 1012.3 |
| 20260509235205 | 48 | 127 | 0.0 | 0.9 | 0.03 | 0.33 | 0.33 | 95 | 1012.3 |
| 20260509234205 | 48 | 127 | 0.0 | 0.9 | 0.03 | 0.32 | 0.32 | 95 | 1012.3 |
| 20260509231705 | 48 | 126 | 0.9 | 1.7 | 0.03 | 0.31 | 0.31 | 95 | 1012.1 |
| 20260509230704 | 48 | 162 | 0.0 | 0.9 | 0.03 | 0.31 | 0.31 | 95 | 1012.1 |
| 20260509230204 | 48 | 210 | 0.0 | 0.9 | 0.03 | 0.31 | 0.31 | 95 | 1012.0 |
| 20260509225206 | 48 | 210 | 0.0 | 0.0 | 0.03 | 0.30 | 0.30 | 95 | 1011.9 |
| 20260509224705 | 48 | 210 | 0.0 | 1.7 | 0.03 | 0.30 | 0.30 | 95 | 1011.9 |
| 20260509221205 | 49 | 33 | 0.0 | 1.7 | 0.07 | 0.28 | 0.28 | 95 | 1012.3 |
| 20260509215705 | 49 | 24 | 0.0 | 0.9 | 0.07 | 0.27 | 0.27 | 95 | 1012.5 |
| 20260509215205 | 49 | 24 | 0.0 | 0.9 | 0.08 | 0.27 | 0.27 | 95 | 1012.6 |
| 20260509213704 | 49 | 53 | 0.0 | 0.0 | 0.06 | 0.25 | 0.25 | 94 | 1012.6 |
| 20260509212704 | 49 | 53 | 0.0 | 0.9 | 0.06 | 0.24 | 0.24 | 94 | 1012.7 |
| 20260509212205 | 49 | 53 | 0.0 | 0.9 | 0.05 | 0.23 | 0.23 | 94 | 1012.7 |
| 20260509210705 | 49 | 93 | 0.0 | 1.7 | 0.04 | 0.21 | 0.21 | 94 | 1012.8 |
| 20260509210205 | 49 | 93 | 0.0 | 1.7 | 0.04 | 0.20 | 0.20 | 94 | 1012.9 |
| 20260509205704 | 49 | 92 | 0.0 | 2.6 | 0.04 | 0.20 | 0.20 | 94 | 1012.7 |
| 20260509203704 | 49 | 344 | 0.0 | 1.7 | 0.03 | 0.19 | 0.19 | 94 | 1012.7 |
| 20260509202705 | 49 | 92 | 0.0 | 2.6 | 0.02 | 0.18 | 0.18 | 94 | 1012.6 |